TimeCST,TemperatureF,Dew PointF,Humidity,Sea Level PressureIn,VisibilityMPH,Wind Direction,Wind SpeedMPH,Gust SpeedMPH,PrecipitationIn,Events,Conditions,WindDirDegrees,DateUTC
12:16 AM,27.1,13.6,57,29.97,10.0,ESE,5.8,-,N/A,,Overcast,120,2013-03-04 06:16:00
12:35 AM,27.3,13.8,57,29.97,10.0,ESE,6.9,-,N/A,,Overcast,120,2013-03-04 06:35:00
12:55 AM,27.3,13.8,57,29.97,10.0,ESE,6.9,-,N/A,,Overcast,120,2013-03-04 06:55:00
1:16 AM,27.1,14.5,59,29.97,10.0,East,6.9,-,N/A,,Overcast,100,2013-03-04 07:16:00
2:16 AM,27.1,14.4,59,29.95,10.0,ESE,6.9,-,N/A,,Overcast,110,2013-03-04 08:16:00
2:35 AM,26.6,15.1,62,29.94,10.0,ESE,6.9,-,N/A,,Overcast,110,2013-03-04 08:35:00
2:56 AM,26.6,14.7,61,29.93,10.0,ESE,6.9,-,N/A,,Overcast,110,2013-03-04 08:56:00
3:36 AM,26.4,14.9,62,29.93,10.0,East,8.1,-,N/A,,Overcast,100,2013-03-04 09:36:00
3:55 AM,26.2,14.7,62,29.93,10.0,East,8.1,-,N/A,,Overcast,100,2013-03-04 09:55:00
4:16 AM,26.1,14.9,63,29.92,10.0,East,12.7,-,N/A,,Overcast,100,2013-03-04 10:16:00
4:36 AM,25.5,16.2,68,29.92,4.0,ESE,10.4,18.4,N/A,Snow,Light Snow,110,2013-03-04 10:36:00
5:15 AM,24.4,18.9,79,29.93,3.0,ESE,10.4,-,N/A,Snow,Light Snow,110,2013-03-04 11:15:00
5:36 AM,23.9,19.4,83,29.93,1.8,ESE,11.5,18.4,N/A,Snow,Light Snow,110,2013-03-04 11:36:00
5:55 AM,23.0,20.8,91,29.93,1.2,ESE,9.2,-,N/A,Snow,Light Snow,110,2013-03-04 11:55:00
6:16 AM,22.8,21.2,93,29.94,1.0,ESE,8.1,-,N/A,Snow,Snow,110,2013-03-04 12:16:00
6:35 AM,22.8,21.4,94,29.93,1.2,East,9.2,-,0.01,Snow,Light Snow,100,2013-03-04 12:35:00
6:56 AM,22.5,21.2,95,29.93,1.2,East,11.5,16.1,0.02,Snow,Light Snow,100,2013-03-04 12:56:00
7:15 AM,22.6,21.2,94,29.93,0.8,East,12.7,18.4,N/A,Snow,Light Snow,100,2013-03-04 13:15:00
7:55 AM,23.0,21.2,93,29.94,1.0,ESE,10.4,-,0.01,Snow,Light Snow,110,2013-03-04 13:55:00
8:15 AM,23.0,21.2,93,29.94,0.8,East,9.2,-,N/A,Snow,Light Snow,100,2013-03-04 14:15:00
8:35 AM,23.0,21.4,94,29.94,0.8,East,10.4,-,0.01,Snow,Light Snow,100,2013-03-04 14:35:00
8:55 AM,23.4,21.6,93,29.93,0.8,East,12.7,19.6,0.01,Snow,Light Snow,100,2013-03-04 14:55:00
9:16 AM,23.7,21.7,92,29.93,1.5,East,11.5,-,N/A,Snow,Light Snow,100,2013-03-04 15:16:00
9:35 AM,23.9,21.7,91,29.94,1.5,East,11.5,16.1,N/A,Snow,Light Snow,90,2013-03-04 15:35:00
9:56 AM,23.9,21.2,89,29.93,1.2,East,10.4,-,N/A,Snow,Light Snow,100,2013-03-04 15:56:00
10:15 AM,23.9,21.2,89,29.94,3.0,ESE,11.5,19.6,N/A,Snow,Light Snow,110,2013-03-04 16:15:00
10:36 AM,24.3,21.2,88,29.94,2.0,East,13.8,18.4,0.01,Snow,Light Snow,100,2013-03-04 16:36:00
10:55 AM,24.3,21.0,87,29.94,2.0,East,16.1,20.7,0.01,Snow,Light Snow,100,2013-03-04 16:55:00
11:16 AM,23.9,21.0,89,29.93,2.0,East,15.0,-,N/A,Snow,Light Snow,100,2013-03-04 17:16:00
11:35 AM,24.6,20.8,86,29.93,3.0,East,15.0,-,N/A,Snow,Light Snow,100,2013-03-04 17:35:00
11:56 AM,24.1,20.5,86,29.93,2.5,East,13.8,19.6,N/A,Snow,Light Snow,100,2013-03-04 17:56:00
12:15 PM,24.3,20.3,85,29.93,10.0,East,10.4,18.4,N/A,Snow,Light Snow,100,2013-03-04 18:15:00
12:35 PM,24.6,19.8,82,29.94,10.0,East,9.2,-,N/A,,Overcast,100,2013-03-04 18:35:00
12:56 PM,24.6,19.2,80,29.93,10.0,East,11.5,-,N/A,,Overcast,100,2013-03-04 18:56:00
1:16 PM,24.8,19.4,80,29.94,10.0,East,9.2,-,N/A,,Overcast,90,2013-03-04 19:16:00
1:35 PM,24.8,19.4,80,29.94,10.0,East,9.2,-,N/A,,Overcast,90,2013-03-04 19:35:00
1:55 PM,25.3,18.7,76,29.93,10.0,East,6.9,-,N/A,,Overcast,100,2013-03-04 19:55:00
2:16 PM,25.5,18.7,75,29.93,10.0,East,9.2,-,N/A,,Overcast,100,2013-03-04 20:16:00
2:35 PM,25.3,19.4,78,29.93,10.0,East,9.2,-,N/A,,Overcast,100,2013-03-04 20:35:00
2:56 PM,25.2,19.2,78,29.94,10.0,East,10.4,-,N/A,,Overcast,100,2013-03-04 20:56:00
3:15 PM,25.2,19.0,78,29.95,10.0,East,10.4,-,N/A,,Overcast,100,2013-03-04 21:15:00
3:36 PM,24.8,18.5,77,29.94,10.0,East,10.4,-,N/A,,Overcast,100,2013-03-04 21:36:00
3:55 PM,24.8,18.5,77,29.94,10.0,East,10.4,-,N/A,,Overcast,90,2013-03-04 21:55:00
4:15 PM,24.8,18.1,76,29.95,10.0,East,11.5,-,N/A,,Overcast,100,2013-03-04 22:15:00
4:36 PM,24.6,17.6,75,29.95,10.0,East,8.1,-,N/A,,Overcast,100,2013-03-04 22:36:00
4:55 PM,24.6,17.6,75,29.95,10.0,East,12.7,17.3,N/A,,Overcast,100,2013-03-04 22:55:00
5:15 PM,24.6,17.6,75,29.95,10.0,East,10.4,-,N/A,,Overcast,100,2013-03-04 23:15:00
5:36 PM,24.4,18.1,77,29.96,10.0,ESE,9.2,17.3,N/A,,Overcast,110,2013-03-04 23:36:00
5:55 PM,24.3,18.7,79,29.97,7.0,ESE,8.1,-,N/A,Snow,Light Snow,110,2013-03-04 23:55:00
6:15 PM,23.9,19.9,85,29.97,3.0,ESE,8.1,-,N/A,Snow,Light Snow,110,2013-03-05 00:15:00
6:36 PM,23.7,20.8,89,29.97,2.0,East,9.2,-,N/A,Snow,Light Snow,100,2013-03-05 00:36:00
6:55 PM,23.2,21.2,92,29.98,1.8,East,6.9,-,N/A,Snow,Light Snow,100,2013-03-05 00:55:00
7:16 PM,23.4,21.2,91,29.99,2.5,East,8.1,-,N/A,Snow,Light Snow,100,2013-03-05 01:16:00
7:35 PM,23.0,21.6,94,29.99,2.5,East,8.1,-,0.01,Snow,Light Snow,100,2013-03-05 01:35:00
7:55 PM,23.0,21.7,95,30.00,2.0,ESE,4.6,-,0.01,Snow,Light Snow,110,2013-03-05 01:55:00
8:16 PM,23.0,21.9,96,30.02,1.5,ESE,4.6,-,N/A,Snow,Light Snow,110,2013-03-05 02:16:00
8:36 PM,23.0,22.1,96,30.02,1.0,East,3.5,-,N/A,Snow,Light Snow,100,2013-03-05 02:36:00
8:55 PM,22.8,21.9,96,30.01,4.0,East,5.8,-,N/A,Snow,Light Snow,90,2013-03-05 02:55:00
9:15 PM,23.0,22.1,96,30.00,1.5,East,6.9,-,N/A,Snow,Light Snow,100,2013-03-05 03:15:00
9:36 PM,22.8,21.9,96,30.00,4.0,East,5.8,-,N/A,Snow,Light Snow,100,2013-03-05 03:36:00
9:55 PM,23.0,21.9,96,30.00,7.0,East,8.1,-,N/A,,Overcast,100,2013-03-05 03:55:00
10:15 PM,23.0,22.1,96,30.01,5.0,ESE,5.8,-,N/A,Snow,Light Snow,110,2013-03-05 04:15:00
10:55 PM,23.0,22.1,96,30.00,2.0,ESE,5.8,-,N/A,Snow,Light Snow,110,2013-03-05 04:55:00
11:16 PM,23.0,22.1,96,29.99,3.0,East,5.8,-,N/A,Snow,Light Snow,100,2013-03-05 05:16:00
11:35 PM,23.2,22.5,97,29.99,1.0,East,8.1,-,N/A,Snow,Snow,90,2013-03-05 05:35:00
11:56 PM,23.4,22.6,97,29.98,1.0,East,5.8,-,N/A,Snow,Snow,100,2013-03-05 05:56:00